Location: Unspecified
(40.7945°N, 111.1337°W)
Time: 06:23:20
(UTC-06:00)

CZ-3 Stage 3 - Pass Details

Date: 24 March 2019
Orbit: 493 x 34698 km, 30.5° (Epoch: 23 April)

Event Time Altitude Azimuth Distance (km) Brightness Sun altitude
Exits shadow 04:11:47 31° 177° (S) 3,832 5.7 -34.2°
Maximum altitude 04:19:12 43° 130° (SE) 5,291 6.7 -33.1°
Drops below altitude 10° 13:00:28 10° 140° (SE) 19,644 10.4 50.1°
Sets 13:17:29 0° 138° (SE) 17,072 9.8 50.6°
